Temperature
9 10 10 12 13 14 13 13 13 13 12 13 13 14 15 15 14 15 15 15 14 14 13 14 14 15 15 16 16 16 16 16 16 15 15 15 16 17 17 17 17 17 16 16
9 10 12 13 12 12 13 13 13 12 11 12 13 13 14 13 13 13 13 13 12 12 12 12 13 14 15 15 15 16 16 16 16 16 16 15 15 16 17 17 17 17 17 16
8 10 11 12 12 12 12 13 12 12 11 11 12 14 13 12 12 11 11 11 11 11 11 11 11 12 13 14 15 15 15 15 15 15 15 15 14 14 15 15 16 17 17 17
8 10 11 11 11 12 11 12 12 11 12 13 12 15 13 12 12 12 12 11 11 10 10 10 11 11 12 13 14 14 14 15 15 15 15 14 14 13 14 15 15 16 16 16
8 9 10 10 11 12 11 11 11 11 11 12 11 13 14 13 12 12 12 11 11 10 10 10 10 11 12 12 13 13 14 14 14 14 14 14 14 13 13 13 13 14 14 14
8 8 9 10 10 10 9 9 9 10 11 11 12 13 14 13 13 12 12 11 10 10 9 10 10 11 11 12 12 13 13 13 13 14 14 14 14 13 13 13 13 13 13 13
7 7 8 8 8 8 9 9 10 10 10 12 10 11 14 13 12 12 12 11 10 9 9 9 10 10 11 11 12 12 12 12 13 13 13 13 13 13 13 13 13 13 12 12
8 7 7 8 8 8 9 10 11 12 12 12 9 11 13 12 11 10 10 10 9 9 9 8 9 9 10 10 10 11 11 11 12 12 12 12 12 12 12 12 12 12 12 12
9 7 8 8 8 9 9 10 10 11 10 11 12 11 11 11 11 11 11 10 10 9 8 8 8 8 8 9 9 9 10 10 10 11 11 11 11 11 12 12 12 12 12 12
9 7 8 8 9 8 9 9 9 9 10 12 13 12 13 11 12 12 12 11 10 9 8 7 7 7 8 8 8 8 8 9 9 9 10 10 10 10 11 11 11 11 11 11
9 8 7 8 8 8 8 8 9 9 9 11 13 13 13 13 12 12 11 10 9 8 7 6 6 7 7 7 7 7 8 8 8 8 8 9 9 9 10 10 10 10 10 11
9 9 7 7 7 8 9 9 9 9 8 8 11 13 12 12 12 11 11 10 9 7 6 6 5 6 6 7 7 7 7 7 7 7 7 7 8 8 8 9 9 9 9 9
9 8 7 7 7 7 8 8 8 8 8 8 10 13 11 11 11 11 10 10 8 7 5 5 5 5 5 6 6 6 6 6 6 6 6 7 7 7 7 7 8 8 8 8
9 9 9 9 9 8 7 7 8 7 8 8 10 11 11 11 12 11 10 9 8 6 5 4 4 4 4 5 5 5 5 6 5 6 6 6 6 6 6 6 6 7 7 7
9 8 8 8 7 7 7 7 7 7 8 8 10 10 11 12 11 11 10 9 7 5 4 3 3 3 3 4 4 4 5 5 5 5 5 5 5 5 5 5 5 6 6 6
9 8 7 7 7 7 7 7 7 7 8 8 9 9 11 11 10 10 9 8 7 5 3 3 2 2 3 3 3 3 4 4 4 4 4 4 4 4 4 4 4 4 4 4
8 8 7 8 7 7 7 8 8 7 8 8 8 10 11 11 11 10 9 7 5 4 3 2 2 2 2 2 2 2 3 3 3 3 3 3 3 3 2 2 2 2 2 1
8 8 7 7 7 6 9 9 8 8 9 9 9 10 11 10 9 8 6 6 4 3 3 2 1 1 1 1 2 2 2 2 2 2 2 1 1 1 1 1 1 1 0 0
8 8 7 7 7 8 9 9 8 8 9 9 9 10 10 9 8 7 5 5 4 3 2 2 1 1 1 1 1 1 1 1 1 1 1 1 0 0 0 -0 -0 -0 -0 -1
7 8 7 7 7 8 10 9 8 9 9 10 9 10 9 8 10 10 5 5 4 3 2 2 1 0 0 1 1 1 1 1 1 0 0 0 -0 -0 -0 -0 -0 -1 -1 -1
6 6 7 7 7 9 10 9 8 9 9 9 9 9 8 8 9 7 5 4 4 3 2 2 1 1 0 0 0 0 0 0 0 0 0 -0 -0 -0 -0 -0 -1 -1 -1 -1
7 7 7 7 7 8 9 8 9 9 8 8 8 8 7 7 6 5 5 4 4 3 3 2 1 1 1 1 1 1 0 0 -0 -0 -0 -0 -0 -0 -0 -0 -1 -1 -1 -1
8 9 9 9 9 9 8 8 8 8 7 7 7 7 6 6 6 5 4 4 3 3 3 2 2 1 1 1 1 1 0 0 -0 -0 -0 -0 -0 -0 -1 -1 -1 -1 -1 -2
8 7 8 8 9 8 8 7 7 7 7 7 7 7 6 6 6 5 5 4 3 3 3 2 2 2 1 1 1 0 0 0 -0 -0 -0 -0 -0 -1 -1 -1 -1 -1 -2 -2
8 7 7 8 9 8 7 7 7 7 7 7 7 7 6 6 6 5 5 4 4 3 3 2 2 2 2 1 1 1 0 0 -0 -0 -0 -0 -1 -1 -1 -1 -2 -2 -2 -3
7 7 8 9 8 8 8 6 6 6 6 6 6 6 6 6 5 5 5 4 4 3 3 2 2 2 2 1 1 1 1 0 -0 -0 -0 -1 -1 -1 -1 -2 -2 -3 -3 -3
Wind_Speed
11 11 16 20 17 5 13 12 10 8 4 6 8 10 11 11 11 12 11 9 8 7 6 6 6 5 5 6 8 10 11 12 12 11 12 12 13 13 13 14 18 19 19 20
8 13 15 15 12 8 12 11 9 5 3 3 4 10 9 5 5 4 4 3 3 2 2 3 3 3 3 5 6 7 9 10 11 11 12 12 13 12 13 12 15 19 20 20
8 9 14 16 15 11 9 9 8 6 4 3 4 5 3 3 4 5 5 4 4 4 5 5 5 5 4 4 5 5 7 8 9 11 10 10 11 11 12 13 15 17 20 21
5 7 14 16 16 13 8 6 7 6 4 3 2 3 5 6 7 8 8 7 7 7 7 7 7 7 7 6 5 5 6 7 7 8 9 13 14 15 17 15 15 16 18 19
5 9 15 15 12 10 5 6 5 3 2 2 4 5 5 7 8 8 7 7 7 7 7 8 8 8 7 7 7 6 6 5 5 6 8 11 13 14 14 15 17 17 16 17
6 4 4 5 5 8 10 7 5 2 2 5 5 7 6 7 9 8 6 5 6 7 7 7 8 8 8 8 8 8 8 7 6 6 7 9 12 14 15 16 16 15 13 14
5 4 4 4 8 6 6 6 4 4 5 5 4 5 4 7 7 6 4 4 5 6 7 8 9 10 10 10 10 9 10 9 9 8 8 8 10 12 15 15 15 15 13 13
6 5 3 3 4 7 8 6 4 4 5 3 4 6 3 5 4 4 3 2 4 5 6 7 8 9 9 10 10 10 11 11 10 9 9 9 9 9 9 12 13 13 12 12
6 5 3 3 3 6 7 5 1 1 1 3 5 4 3 5 6 6 3 2 4 5 6 6 7 8 9 10 10 11 11 11 11 11 10 10 9 9 9 11 11 10 10 9
6 7 5 5 6 5 1 5 4 4 4 4 4 5 8 14 11 6 1 4 5 5 6 6 7 8 9 9 9 10 10 10 11 11 10 8 9 9 8 8 8 8 7 6
5 7 6 5 5 6 6 4 3 3 2 3 3 4 5 13 10 4 2 5 6 6 6 7 7 8 8 9 9 9 10 10 10 10 10 9 8 8 7 5 5 5 4 3
3 5 5 3 1 1 4 5 6 4 4 3 2 2 4 8 6 2 5 6 5 5 5 6 7 7 8 9 9 10 10 10 11 10 9 8 7 7 6 5 5 3 2 1
5 6 6 4 3 4 5 5 5 2 2 4 3 4 4 5 4 4 6 7 5 5 5 6 6 7 8 9 9 9 10 10 10 10 9 9 9 8 8 7 6 6 5 5
4 3 3 4 2 7 6 9 10 7 5 5 6 2 4 4 5 7 7 6 5 4 4 6 6 7 8 8 8 9 9 10 9 9 10 10 10 10 9 9 9 9 8 8
2 2 2 1 2 4 6 10 13 12 9 7 5 5 6 7 8 8 8 6 5 4 4 5 6 7 7 8 8 8 9 9 9 9 10 10 10 10 11 11 11 12 12 12
2 3 3 1 2 4 6 10 13 14 14 13 12 11 10 8 6 7 8 6 5 3 3 4 5 6 7 7 7 7 8 8 8 9 10 10 10 11 11 11 12 13 13 12
4 5 3 2 1 3 8 12 16 11 11 11 13 10 8 8 9 9 8 5 3 1 2 3 4 4 5 6 6 6 7 7 8 9 10 10 10 10 11 11 12 12 12 13
6 5 2 1 2 6 1 2 8 13 13 13 11 11 11 11 10 7 4 2 1 0 0 1 2 3 4 4 5 5 6 7 8 9 9 9 9 10 10 11 12 12 11 11
4 5 3 2 3 6 4 4 6 7 6 11 14 14 12 9 6 3 3 2 1 1 1 1 1 2 3 4 4 5 7 8 9 9 9 8 8 9 10 10 11 10 10 11
3 3 3 3 4 4 1 3 5 4 3 3 6 7 6 3 4 0 5 4 3 3 2 2 2 2 3 4 4 6 7 8 8 8 8 8 8 9 9 10 10 9 10 10
5 4 6 6 5 5 2 3 6 4 3 2 2 4 4 4 4 2 6 5 4 4 4 3 3 3 3 3 5 6 7 7 6 6 7 8 8 9 9 9 8 9 9 9
9 7 7 6 7 5 4 6 5 0 1 2 3 3 4 4 2 4 6 6 6 6 5 5 4 4 3 4 5 6 6 5 6 7 8 8 8 7 7 8 8 7 8 8
9 8 5 6 5 1 3 4 1 1 3 3 3 4 4 4 5 6 7 7 7 7 6 6 6 5 4 3 5 6 5 5 7 8 8 8 8 7 6 7 7 6 5 5
6 6 5 5 7 6 5 4 3 3 4 3 4 4 5 5 5 7 7 8 8 8 8 7 7 7 6 5 5 6 6 6 8 8 7 7 7 7 6 5 5 5 4 4
5 7 6 7 5 3 3 2 0 1 2 2 3 3 5 5 6 7 8 9 9 8 8 8 8 8 8 7 6 6 7 7 8 8 7 6 6 6 6 6 5 5 4 3
6 7 7 6 4 4 3 2 1 2 3 4 4 4 4 5 6 7 8 9 9 9 9 9 9 9 8 8 7 7 7 7 8 7 6 5 5 4 5 5 6 7 6 6
Wind_Direction
172 180 186 186 189 200 178 182 180 177 154 204 224 245 256 261 259 258 259 260 262 270 286 298 300 292 276 263 255 251 248 242 238 232 227 225 226 228 228 228 230 230 227 221
163 195 187 176 172 158 170 177 169 147 146 222 244 261 266 276 260 260 258 259 274 299 326 343 336 324 302 284 275 266 258 254 247 239 236 234 234 234 232 229 230 229 227 224
169 172 169 171 173 167 173 181 170 153 152 162 276 237 150 106 109 101 95 86 71 53 46 42 37 29 13 346 318 295 281 272 262 256 249 244 240 239 236 232 231 228 226 224
139 156 169 175 182 182 177 169 157 158 195 191 281 219 143 131 117 102 95 84 72 62 54 44 36 31 23 7 347 323 304 288 277 264 249 243 239 238 237 236 236 233 228 225
136 159 171 180 183 182 144 127 131 149 196 237 217 234 163 158 142 120 98 77 60 45 35 29 22 14 10 3 355 345 332 316 300 275 257 251 248 249 250 246 244 241 235 229
90 84 130 151 121 131 123 108 92 106 206 236 207 216 185 173 159 141 112 71 43 28 23 21 16 9 5 1 354 346 339 332 324 303 276 256 253 253 253 250 248 245 242 235
97 79 76 109 114 126 153 157 168 189 207 220 152 219 212 151 152 150 122 49 18 12 11 9 6 1 357 354 349 341 335 328 324 314 297 279 266 261 256 254 252 249 246 241
131 128 122 135 151 165 179 199 216 209 201 173 181 222 155 148 165 192 222 313 346 1 4 2 359 353 348 345 342 339 333 326 323 317 308 297 284 270 262 258 256 254 251 247
134 121 103 95 116 154 164 192 317 86 110 225 201 215 222 187 187 193 211 308 350 358 359 357 354 351 347 343 341 338 332 327 325 321 314 305 298 285 276 271 265 262 258 257
119 122 133 132 116 58 132 147 164 193 213 218 192 201 178 172 172 175 224 349 353 353 355 356 353 351 349 345 342 341 339 333 329 326 321 313 308 301 291 281 273 266 263 255
113 123 141 163 185 170 153 166 180 177 245 239 193 149 148 163 163 167 347 350 346 348 352 353 352 352 352 353 354 353 350 345 342 338 332 326 322 320 315 306 298 289 276 254
104 123 135 140 54 239 208 190 180 200 203 223 257 133 127 169 175 236 321 338 345 351 356 355 356 358 1 360 359 358 355 354 351 348 347 349 348 349 350 351 350 349 350 30
134 132 133 153 187 190 205 192 190 151 145 193 215 143 130 185 219 282 318 334 344 353 0 2 5 7 5 2 1 1 2 0 1 4 9 13 13 16 18 21 26 33 46 62
123 141 195 191 167 172 192 194 188 180 197 207 231 222 190 216 279 317 331 335 339 354 3 6 6 7 6 5 6 7 9 10 13 21 28 28 27 30 35 41 47 53 59 67
126 136 140 120 127 169 202 200 198 207 215 221 234 245 258 283 300 309 316 322 327 345 2 6 4 4 5 8 10 13 16 20 25 34 39 38 39 44 49 53 57 62 65 69
126 132 141 181 196 220 238 225 214 220 228 238 256 272 272 284 290 295 308 314 314 333 355 4 4 3 6 9 11 16 25 30 37 45 46 45 48 52 56 60 65 67 69 72
156 152 171 198 180 246 252 228 212 210 214 221 234 245 271 288 300 309 312 303 293 320 354 4 4 2 6 12 16 24 34 44 50 54 53 51 55 59 62 66 68 69 70 72
162 159 169 200 208 240 225 136 205 217 228 223 238 254 271 286 303 306 297 252 203 178 38 21 8 11 17 27 35 42 50 55 58 58 58 57 62 66 67 68 69 69 70 73
174 171 182 210 249 272 267 203 184 195 235 226 234 255 272 291 290 247 156 144 134 134 118 79 41 35 41 47 51 60 62 62 63 61 61 63 69 73 73 73 73 73 75 74
142 182 196 207 245 249 139 130 170 186 198 167 208 249 276 277 278 262 152 154 146 140 137 123 107 88 72 64 72 78 73 70 66 66 68 71 76 80 80 79 78 79 81 82
169 185 209 222 247 268 241 153 161 206 156 149 237 270 268 250 279 113 149 156 153 148 140 133 122 103 85 88 96 91 83 75 75 78 79 78 79 82 85 85 84 88 91 91
190 192 202 207 227 247 148 164 196 212 65 265 271 274 267 254 217 170 172 166 163 158 152 148 136 118 105 112 113 103 90 89 92 89 84 81 80 84 88 91 90 93 99 98
207 208 204 214 230 45 168 199 242 290 273 281 279 280 262 238 217 194 185 177 172 167 160 157 147 134 125 122 125 115 111 114 107 98 92 90 88 86 91 96 100 98 95 96
210 205 219 243 250 245 245 249 265 270 268 281 280 278 253 241 219 197 186 180 176 172 169 164 159 153 144 136 130 126 130 129 120 111 106 103 99 94 90 88 88 91 92 97
201 183 210 237 249 248 221 178 322 322 302 293 291 272 257 241 219 200 190 184 180 174 172 172 170 162 155 150 143 140 142 140 129 122 116 111 105 104 95 86 78 82 77 69
198 198 204 224 207 205 174 127 356 319 314 311 298 285 257 231 221 201 194 186 180 177 174 175 173 168 163 161 154 151 152 151 142 135 131 125 121 116 114 113 101 78 80 86
Height
1477 1481 1480 1480 1483 1483 1486 1491 1494 1497 1503 1503 1501 1501 1500 1500 1500 1500 1500 1500 1500 1501 1500 1499 1499 1500 1500 1501 1503 1504 1506 1507 1509 1509 1510 1510 1511 1512 1512 1514 1515 1516 1517 1518
1477 1477 1476 1480 1485 1487 1488 1491 1494 1500 1503 1501 1500 1498 1496 1498 1498 1498 1498 1498 1498 1497 1497 1496 1495 1495 1495 1496 1497 1498 1499 1501 1502 1503 1504 1504 1505 1505 1506 1507 1508 1509 1510 1511
1473 1475 1478 1481 1485 1488 1489 1490 1493 1497 1502 1504 1501 1492 1495 1498 1498 1498 1497 1497 1496 1496 1495 1494 1493 1492 1492 1492 1492 1493 1493 1494 1495 1496 1497 1497 1498 1498 1498 1499 1500 1501 1502 1503
1476 1476 1478 1481 1484 1485 1490 1492 1495 1497 1496 1495 1499 1488 1492 1496 1497 1497 1497 1497 1496 1496 1495 1493 1492 1491 1490 1489 1488 1488 1488 1489 1489 1489 1490 1490 1490 1490 1491 1492 1493 1494 1494 1495
1476 1477 1478 1482 1484 1486 1492 1496 1498 1499 1497 1498 1498 1492 1486 1493 1494 1496 1497 1497 1496 1496 1494 1492 1490 1489 1488 1487 1486 1485 1485 1484 1484 1484 1484 1484 1484 1484 1485 1486 1486 1486 1487 1487
1478 1481 1482 1484 1488 1491 1496 1500 1503 1503 1500 1497 1492 1491 1483 1487 1491 1494 1496 1497 1496 1495 1493 1491 1490 1488 1487 1485 1484 1483 1482 1481 1480 1479 1478 1478 1477 1477 1478 1478 1478 1479 1479 1479
1482 1485 1487 1488 1492 1497 1496 1498 1499 1499 1497 1489 1499 1495 1483 1488 1492 1494 1495 1496 1495 1494 1492 1490 1488 1486 1484 1482 1481 1479 1478 1477 1475 1474 1473 1472 1471 1470 1470 1471 1471 1471 1471 1472
1478 1486 1488 1489 1489 1492 1493 1493 1490 1486 1484 1486 1501 1491 1484 1489 1493 1495 1495 1495 1494 1493 1491 1488 1486 1483 1481 1479 1477 1475 1473 1472 1470 1469 1467 1466 1465 1464 1463 1464 1464 1464 1464 1464
1474 1485 1490 1490 1491 1491 1493 1492 1493 1490 1493 1487 1482 1486 1487 1489 1492 1493 1494 1494 1493 1491 1489 1486 1484 1481 1478 1476 1473 1471 1469 1467 1465 1463 1462 1460 1459 1458 1457 1457 1457 1457 1457 1457
1473 1484 1489 1491 1492 1495 1493 1493 1495 1495 1489 1478 1476 1478 1475 1484 1487 1489 1491 1490 1490 1488 1486 1484 1481 1478 1475 1473 1470 1468 1465 1463 1461 1459 1457 1455 1454 1452 1451 1451 1450 1450 1450 1450
1473 1481 1490 1490 1490 1491 1495 1496 1493 1491 1491 1481 1472 1473 1474 1478 1483 1486 1487 1487 1487 1485 1483 1480 1478 1475 1472 1470 1467 1465 1462 1460 1457 1455 1453 1451 1449 1447 1446 1445 1445 1445 1444 1444
1475 1477 1486 1491 1493 1492 1490 1490 1491 1490 1493 1492 1481 1478 1478 1480 1483 1485 1485 1485 1483 1482 1480 1477 1475 1472 1470 1467 1465 1462 1460 1457 1454 1451 1449 1447 1445 1444 1442 1441 1441 1440 1440 1439
1474 1478 1486 1490 1494 1494 1491 1491 1491 1493 1493 1492 1482 1476 1480 1481 1482 1483 1482 1481 1480 1479 1477 1475 1472 1470 1467 1465 1463 1460 1457 1455 1452 1449 1447 1445 1443 1441 1440 1439 1438 1437 1437 1436
1474 1476 1477 1476 1475 1482 1487 1489 1490 1492 1491 1487 1482 1476 1477 1478 1478 1479 1479 1478 1477 1476 1474 1472 1470 1468 1465 1463 1461 1458 1456 1453 1451 1448 1446 1443 1441 1440 1438 1437 1436 1436 1435 1434
1474 1477 1479 1480 1482 1483 1483 1484 1487 1488 1485 1484 1478 1479 1474 1475 1476 1476 1476 1475 1474 1473 1471 1469 1467 1466 1464 1462 1460 1457 1455 1452 1450 1447 1445 1443 1441 1440 1438 1437 1436 1435 1434 1434
1475 1478 1481 1482 1483 1484 1483 1481 1482 1484 1483 1482 1481 1479 1473 1474 1474 1474 1473 1472 1471 1470 1469 1467 1465 1464 1462 1460 1458 1457 1454 1452 1449 1447 1445 1443 1442 1440 1439 1437 1436 1435 1435 1434
1475 1478 1480 1479 1482 1482 1477 1472 1475 1476 1476 1477 1477 1473 1470 1471 1471 1470 1470 1469 1469 1467 1466 1465 1463 1462 1461 1459 1458 1456 1454 1452 1450 1448 1446 1445 1443 1442 1440 1439 1438 1438 1437 1437
1475 1477 1479 1479 1482 1481 1467 1467 1468 1470 1470 1472 1470 1469 1469 1469 1469 1468 1467 1467 1466 1465 1464 1463 1462 1461 1460 1458 1457 1455 1454 1452 1450 1449 1447 1446 1445 1444 1443 1442 1442 1442 1442 1442
1474 1475 1477 1478 1474 1467 1464 1465 1467 1468 1466 1465 1467 1467 1467 1467 1466 1464 1464 1464 1464 1463 1462 1461 1460 1460 1459 1458 1457 1456 1454 1453 1451 1450 1449 1449 1448 1447 1447 1446 1446 1446 1447 1447
1476 1476 1476 1476 1475 1467 1461 1462 1464 1466 1462 1463 1464 1465 1465 1465 1462 1461 1462 1462 1461 1461 1460 1460 1459 1459 1459 1458 1457 1456 1455 1454 1453 1453 1452 1452 1452 1451 1451 1451 1451 1451 1452 1452
1476 1476 1475 1473 1471 1460 1460 1462 1464 1465 1461 1463 1463 1463 1463 1463 1462 1462 1460 1460 1460 1460 1459 1459 1459 1459 1458 1458 1458 1457 1457 1456 1456 1456 1456 1455 1455 1455 1455 1455 1455 1455 1456 1456
1466 1468 1469 1469 1468 1463 1459 1461 1461 1460 1461 1461 1461 1461 1460 1460 1459 1458 1458 1458 1458 1458 1458 1458 1458 1459 1459 1459 1459 1459 1459 1459 1459 1459 1459 1459 1459 1458 1459 1459 1459 1459 1459 1459
1461 1460 1459 1460 1459 1457 1458 1459 1459 1459 1459 1459 1459 1458 1458 1457 1456 1456 1456 1456 1457 1457 1458 1458 1459 1459 1459 1460 1460 1461 1460 1460 1461 1461 1461 1461 1461 1461 1462 1462 1461 1461 1461 1460
1458 1460 1460 1458 1455 1456 1457 1457 1457 1457 1457 1457 1456 1456 1455 1454 1453 1453 1454 1454 1455 1456 1457 1458 1459 1459 1460 1460 1461 1462 1462 1462 1463 1463 1463 1464 1464 1464 1464 1464 1463 1463 1462 1461
1452 1456 1455 1454 1453 1454 1454 1454 1455 1455 1454 1454 1453 1453 1452 1451 1451 1451 1451 1452 1453 1454 1456 1457 1458 1459 1460 1461 1462 1462 1463 1464 1464 1465 1465 1465 1465 1465 1465 1465 1464 1463 1462 1462
1450 1451 1450 1448 1449 1451 1452 1453 1453 1452 1452 1451 1450 1449 1449 1448 1448 1448 1448 1449 1451 1452 1454 1455 1457 1458 1459 1461 1462 1463 1463 1464 1465 1466 1466 1466 1466 1466 1466 1465 1464 1463 1462 1461